Tracking 20942 objects as of 15-Jul-2020
HD Live streaming from Space Station
objects crossing your sky now

COSMOS 2535 DEB

Track COSMOS 2535 DEB now!
10-day predictions


NORAD ID: 45010
Int'l Code: 2019-039AB
Perigee: 445.4 km
Apogee: 654.3 km
Inclination: 97.4 °
Period: 95.5 minutes
Semi major axis: 6920 km
RCS: Unknown
Launch date: July 10, 2019
Source: Commonwealth of Independent States (former USSR) (CIS)
Launch site: PLESETSK MISSILE AND SPACE COMPLEX (PKMTR)

Note: This is SATELLITE DEBRIS
aabbcc
Your satellite tracking list
Your tracking list is empty




NASA's NSSDC Master Catalog

Two Line Element Set (TLE):
1 45010U 19039AB  20053.56579050  .04558663  00000-0  19950+0 0  9999
2 45010  97.4068 103.7776 0150938 237.3469 121.3122 15.07875855  6466
Source of the keplerian elements: AFSPC